EW6341 Weather Reports


Display with metric or nautical units.
time (UTC)temp
F
wind
direction
speed
MPH
gust
MPH
rain 1hr
in
rain 24hr
in
rain mn
in
humidity
%
barometer
mb
20260505072038 83 131 0.0 0.0 0.00 0.00 0.00 1 1011.1
20260505071532 83 128 0.0 0.0 0.00 0.00 0.00 1 1011.0
20260505071027 83 122 0.0 0.0 0.00 0.00 0.00 1 1011.1
20260505070520 83 113 0.0 0.0 0.00 0.00 0.00 1 1011.2
20260505070012 83 105 0.0 0.0 0.00 0.00 0.00 1 1011.2
20260505065508 83 115 0.0 0.0 0.00 0.00 0.00 1 1011.4
20260505065002 83 107 0.0 0.0 0.00 0.00 0.00 1 1011.5
20260505064456 83 123 0.0 0.0 0.00 0.00 0.00 1 1011.5
20260505063950 83 115 0.0 0.0 0.00 0.00 0.00 1 1011.5
20260505063443 83 121 0.0 0.0 0.00 0.00 0.00 1 1011.6
20260505062937 84 107 0.0 0.0 0.00 0.00 0.00 1 1011.7
20260505062431 84 122 0.0 0.0 0.00 0.00 0.00 1 1011.7
20260505061926 84 124 0.0 0.0 0.00 0.00 0.00 1 1011.7
20260505061420 83 115 0.0 0.0 0.00 0.00 0.00 1 1011.8
20260505060918 83 126 0.0 0.0 0.00 0.00 0.00 1 1012.0
20260505060651 84 131 0.0 0.0 0.00 0.00 0.00 1 1012.1
20260505055917 83 106 0.0 0.0 0.00 0.00 0.00 1 1012.1
20260505055648 84 101 0.0 0.0 0.00 0.00 0.00 1 1012.2
20260505054917 84 125 0.0 0.0 0.00 0.00 0.00 1 1012.3
20260505054417 84 124 0.0 0.0 0.00 0.00 0.00 1 1012.2
20260505053917 84 124 0.0 0.0 0.00 0.00 0.00 1 1012.2
20260505053417 84 127 0.0 0.0 0.00 0.00 0.00 1 1012.3
20260505053147 84 113 0.0 0.0 0.00 0.00 0.00 1 1012.4
20260505052418 84 120 0.0 0.0 0.00 0.00 0.00 1 1012.6
20260505051918 84 108 0.0 0.0 0.00 0.00 0.00 1 1012.8
20260505051418 84 112 0.0 0.0 0.00 0.00 0.00 1 1013.0
20260505051149 84 108 0.0 0.0 0.00 0.00 0.00 1 1013.0
20260505050649 83 102 0.0 0.0 0.00 0.00 0.00 1 1012.9
20260505040852 83 91 0.0 0.0 0.00 0.00 0.00 1 1013.0
20260505040345 83 97 0.0 0.0 0.00 0.00 0.00 1 1012.9
20260505035840 83 99 0.0 0.0 0.00 0.00 0.00 1 1013.0
20260505035334 83 99 0.0 0.0 0.00 0.00 0.00 1 1012.9
20260505034828 84 95 0.0 0.0 0.00 0.00 0.00 1 1012.8
20260505034322 84 122 0.0 0.0 0.00 0.00 0.00 1 1012.6
20260505033816 84 111 0.0 0.0 0.00 0.00 0.00 1 1012.5
20260505033310 84 92 0.0 0.0 0.00 0.00 0.00 1 1012.5
20260505032804 84 117 0.0 0.0 0.00 0.00 0.00 1 1012.5
20260505032258 84 111 0.0 0.0 0.00 0.00 0.00 1 1012.5
20260505031751 83 110 0.0 0.0 0.00 0.00 0.00 1 1012.5
20260505031246 83 101 0.0 0.0 0.00 0.00 0.00 1 1012.5
20260505030740 84 107 0.0 0.0 0.00 0.00 0.00 1 1012.4
20260505030232 83 103 0.0 0.0 0.00 0.00 0.00 1 1012.3
20260505025728 83 108 0.0 0.0 0.00 0.00 0.00 1 1012.2
20260505025219 84 121 0.0 0.0 0.00 0.00 0.00 1 1012.1
20260505024714 84 120 0.0 0.0 0.00 0.00 0.00 1 1012.1
20260505024208 83 103 0.0 0.0 0.00 0.00 0.00 1 1012.0
20260505023702 83 133 0.0 0.0 0.00 0.00 0.00 1 1011.7
20260505023159 83 114 0.0 0.0 0.00 0.00 0.00 1 1011.6
20260505022700 84 108 0.0 0.0 0.00 0.00 0.00 1 1011.5
20260505022159 84 120 0.0 0.0 0.00 0.00 0.00 1 1011.5
20260505021701 83 103 0.0 0.0 0.00 0.00 0.00 1 1011.5
20260505021159 84 98 0.0 0.0 0.00 0.00 0.00 1 1011.5
20260505020928 84 101 0.0 0.0 0.00 0.00 0.00 1 1011.4
20260505020427 83 105 0.0 0.0 0.00 0.00 0.00 1 1011.4
20260505015659 83 104 0.0 0.0 0.00 0.00 0.00 1 1011.3
20260505015153 84 117 0.0 0.0 0.00 0.00 0.00 1 1011.3
20260505014700 84 106 0.0 0.0 0.00 0.00 0.00 1 1011.3
20260505014151 84 91 0.0 0.0 0.00 0.00 0.00 1 1011.4
20260505013651 84 97 0.0 0.0 0.00 0.00 0.00 1 1011.4
20260505013150 84 107 0.0 0.0 0.00 0.00 0.00 1 1011.3
20260505012649 84 101 0.0 0.0 0.00 0.00 0.00 1 1011.2
20260505012146 84 82 0.0 0.0 0.00 0.00 0.00 1 1011.1
20260505011643 84 105 0.0 0.0 0.00 0.00 0.00 1 1011.1
20260505011144 84 86 0.0 0.0 0.00 0.00 0.00 1 1011.2
20260505010707 84 96 0.0 0.0 0.00 0.00 0.00 1 1011.2
20260505010644 84 94 0.0 0.0 0.00 0.00 0.00 1 1011.2
20260505005643 84 101 0.0 0.0 0.00 0.00 0.00 1 1011.1
20260505005137 84 101 0.0 0.0 0.00 0.00 0.00 1 1011.1
20260505004631 84 111 0.0 0.0 0.00 0.00 0.00 1 1011.1
20260505004124 84 104 0.0 0.0 0.00 0.00 0.00 1 1011.0
20260505003850 84 95 0.0 0.0 0.00 0.00 0.00 1 1011.0
20260505003113 84 96 0.0 0.0 0.00 0.00 0.00 1 1010.9
20260505002607 84 98 0.0 0.0 0.00 0.00 0.00 1 1011.0
20260505002101 84 96 0.0 0.0 0.00 0.00 0.00 1 1011.0
20260505001555 84 127 0.0 0.0 0.00 0.00 0.00 1 1010.9
20260505001049 84 110 0.0 0.0 0.00 0.00 0.00 1 1010.9
20260505000544 84 110 0.0 0.0 0.00 0.00 0.00 1 1010.9
20260505000036 84 96 0.0 0.0 0.00 0.00 0.00 1 1010.7
20260504235531 85 99 0.0 0.0 0.00 0.00 0.00 1 1010.7
20260504235023 85 94 0.0 0.0 0.00 0.00 0.00 1 1010.8
20260504234518 85 101 0.0 0.0 0.00 0.00 0.00 1 1010.8
20260504234014 85 113 0.0 0.0 0.00 0.00 0.00 1 1010.8
20260504233513 85 81 0.0 0.0 0.00 0.00 0.00 1 1010.8
20260504233015 85 103 0.0 0.0 0.00 0.00 0.00 1 1010.9
20260504232513 85 99 0.0 0.0 0.00 0.00 0.00 1 1010.9
20260504232015 86 115 0.0 0.0 0.00 0.00 0.00 1 1010.9
20260504231513 86 105 0.0 0.0 0.00 0.00 0.00 1 1011.0
20260504231012 86 72 0.0 0.0 0.00 0.00 0.00 1 1011.0
20260504230743 86 120 0.0 0.0 0.00 0.00 0.00 1 1010.8
20260504230013 86 69 0.0 0.0 0.00 0.00 0.00 1 1010.7
20260504225513 87 86 0.0 0.0 0.00 0.00 0.00 1 1010.7
20260504225013 87 91 0.0 0.0 0.00 0.00 0.00 1 1010.7
20260504224513 87 111 0.0 0.0 0.00 0.00 0.00 1 1010.7
20260504224027 87 92 0.0 0.0 0.00 0.00 0.00 1 1010.6
20260504224013 87 102 0.0 0.0 0.00 0.00 0.00 1 1010.7
20260504223014 87 67 0.0 0.0 0.00 0.00 0.00 1 1010.6
20260504222513 87 100 0.0 0.0 0.00 0.00 0.00 1 1010.5
20260504222014 87 110 0.0 0.0 0.00 0.00 0.00 1 1010.6
20260504221512 87 103 0.0 0.0 0.00 0.00 0.00 1 1010.7
20260504221013 87 58 0.0 0.0 0.00 0.00 0.00 1 1010.7
20260504220513 87 92 0.0 0.0 0.00 0.00 0.00 1 1010.6
20260504220248 87 101 0.0 0.0 0.00 0.00 0.00 1 1010.6
20260504215746 87 73 0.0 0.0 0.00 0.00 0.00 1 1010.5
20260504215011 87 111 0.0 0.0 0.00 0.00 0.00 1 1010.4
20260504214511 87 113 0.0 0.0 0.00 0.00 0.00 1 1010.4
20260504214010 87 96 0.0 0.0 0.00 0.00 0.00 1 1010.4
20260504213510 88 86 0.0 0.0 0.00 0.00 0.00 1 1010.6
20260504213011 88 72 0.0 0.0 0.00 0.00 0.00 1 1010.7
20260504212512 88 59 0.0 0.0 0.00 0.00 0.00 1 1010.7
20260504212012 88 90 0.0 0.0 0.00 0.00 0.00 1 1010.7
20260504211509 88 83 0.0 0.0 0.00 0.00 0.00 1 1010.9
20260504211241 88 51 0.0 0.0 0.00 0.00 0.00 1 1011.0
20260504210739 89 84 0.0 0.0 0.00 0.00 0.00 1 1010.9
20260504210007 89 86 0.0 0.0 0.00 0.00 0.00 1 1011.0
20260504205507 89 106 0.0 0.0 0.00 0.00 0.00 1 1011.0
20260504205007 89 89 0.0 0.0 0.00 0.00 0.00 1 1011.1
20260504204507 88 101 0.0 0.0 0.00 0.00 0.00 1 1011.1
20260504204008 89 109 0.0 0.0 0.00 0.00 0.00 1 1011.1
20260504203507 89 53 0.0 0.0 0.00 0.00 0.00 1 1011.2
20260504203009 89 51 0.0 0.0 0.00 0.00 0.00 1 1011.4
20260504202504 89 59 0.0 0.0 0.00 0.00 0.00 1 1011.4
20260504202004 89 67 0.0 0.0 0.00 0.00 0.00 1 1011.5
20260504201504 89 89 0.0 0.0 0.00 0.00 0.00 1 1011.5
20260504201003 89 50 0.0 0.0 0.00 0.00 0.00 1 1011.6
20260504200504 89 47 0.0 0.0 0.00 0.00 0.00 1 1011.6
20260504200003 89 94 0.0 0.0 0.00 0.00 0.00 1 1011.7
20260504195504 89 82 0.0 0.0 0.00 0.00 0.00 1 1011.7
20260504195236 89 61 0.0 0.0 0.00 0.00 0.00 1 1011.8
20260504194736 89 86 0.0 0.0 0.00 0.00 0.00 1 1011.9
20260504193958 89 67 0.0 0.0 0.00 0.00 0.00 1 1011.9
20260504193443 89 98 0.0 0.0 0.00 0.00 0.00 1 1011.9
20260504192943 89 107 0.0 0.0 0.00 0.00 0.00 1 1011.9
20260504192443 89 124 0.0 0.0 0.00 0.00 0.00 1 1011.9
20260504191943 89 89 0.0 0.0 0.00 0.00 0.00 1 1012.0
20260504191442 89 94 0.0 0.0 0.00 0.00 0.00 1 1012.1
20260504191217 89 105 0.0 0.0 0.00 0.00 0.00 1 1012.2
20260504190712 89 70 0.0 0.0 0.00 0.00 0.00 1 1012.3
20260504185940 89 100 0.0 0.0 0.00 0.00 0.00 1 1012.2
20260504185440 89 97 0.0 0.0 0.00 0.00 0.00 1 1012.3
20260504184939 89 83 0.0 0.0 0.00 0.00 0.00 1 1012.5
20260504184438 89 113 0.0 0.0 0.00 0.00 0.00 1 1012.5
20260504184209 89 66 0.0 0.0 0.00 0.00 0.00 1 1012.7
20260504183432 89 72 0.0 0.0 0.00 0.00 0.00 1 1012.7
20260504183200 90 112 0.0 0.0 0.00 0.00 0.00 1 1012.8
20260504183036 90 75 0.0 0.0 0.00 0.00 0.00 1 1012.8
20260504181927 89 90 0.0 0.0 0.00 0.00 0.00 1 1012.9
20260504181427 89 63 0.0 0.0 0.00 0.00 0.00 1 1012.9
20260504180928 89 106 0.0 0.0 0.00 0.00 0.00 1 1013.0
20260504180424 89 91 0.0 0.0 0.00 0.00 0.00 1 1013.0
20260504175925 89 116 0.0 0.0 0.00 0.00 0.00 1 1013.1
20260504175426 89 77 0.0 0.0 0.00 0.00 0.00 1 1013.1
20260504174924 89 78 0.0 0.0 0.00 0.00 0.00 1 1013.1
20260504174425 89 58 0.0 0.0 0.00 0.00 0.00 1 1013.2
20260504174154 89 91 0.0 0.0 0.00 0.00 0.00 1 1013.2
20260504173422 89 51 0.0 0.0 0.00 0.00 0.00 1 1013.2
20260504173154 89 71 0.0 0.0 0.00 0.00 0.00 1 1013.3
20260504172422 90 95 0.0 0.0 0.00 0.00 0.00 1 1013.3
20260504172156 89 51 0.0 0.0 0.00 0.00 0.00 1 1013.3
20260504171420 89 72 0.0 0.0 0.00 0.00 0.00 1 1013.3
20260504170918 89 55 0.0 0.0 0.00 0.00 0.00 1 1013.4
20260504170648 89 72 0.0 0.0 0.00 0.00 0.00 1 1013.3
20260504160314 89 79 0.0 0.0 0.00 0.00 0.00 1 1013.7
20260504150709 88 86 0.0 0.0 0.00 0.00 0.00 1 1013.9
20260504150202 88 92 0.0 0.0 0.00 0.00 0.00 1 1013.8
20260504141105 85 38 0.0 0.0 0.00 0.00 0.00 1 1013.7
20260504140558 85 359 0.0 0.0 0.00 0.00 0.00 1 1013.8
20260504130510 79 101 0.0 0.0 0.00 0.00 0.00 1 1013.4
20260504110709 0 0.0 0.0 0.00 0.00 0.00 1012.3
20260504110205 0 0.0 0.0 0.00 0.00 0.00 1012.2
20260504100313 80 101 0.0 0.0 0.00 0.00 0.00 1 1012.2
20260504081404 82 101 0.0 0.0 0.00 0.00 0.00 1 1012.1
20260504080902 82 100 0.0 0.0 0.00 0.00 0.00 1 1012.0
20260504080401 82 100 0.0 0.0 0.00 0.00 0.00 1 1012.1
20260504080136 83 101 0.0 0.0 0.00 0.00 0.00 1 1012.1